Regional Weather Roundup
Issued by NWS Kansas City/Pleasant Hill, MO

Home | Current Version | Previous Version | Graphics & Text | Print | Product List | Glossary Off
Versions: 1 2 3 4 5 6 7 8 9 10 11 12 13 14 15 16 17 18 19 20 21 22 23 24 25 26 27 28 29 30 31 32 33 34 35 36 37 38 39 40 41 42 43 44 45 46 47 48 49 50

000
ASUS43 KEAX 252011
RWREAX

WEATHER ROUNDUP FOR EASTERN KANSAS AND NORTHWEST MISSOURI
NATIONAL WEATHER SERVICE KANSAS CITY/PLEASANT HILL MO
300 PM CDT SAT APR 25 2015

KSZ040-057-103>105-MOZ028-029-037-043-252100-
...KANSAS CITY METROPOLITAN AREA...

CITY           SKY/WX    TMP DP  RH WIND       PRES   REMARKS
K.C. INTL      CLOUDY    56  54  93 N13G23    29.58R
K.C. DOWNTOWN  CLOUDY    61  55  81 N14       29.56R
LEES SUMMIT    CLOUDY    60  57  89 N14       29.55R
OLATHE - IXD   CLOUDY    60  56  86 N21G26    29.57R
OLATHE - OJC   PTSUNNY   65  59  81 N13       29.54R
LAWRENCE       CLOUDY    63  57  81 N17       29.58R

$$

MOZ001>008-011>017-020>025-030>033-038>040-044>046-053-054-252100-
...NORTHERN AND CENTRAL MISSOURI...

CITY           SKY/WX    TMP DP  RH WIND       PRES   REMARKS
ST. JOSEPH     CLOUDY    53  49  86 N18       29.61R
MOSBY          CLOUDY    57  54  88 N15       29.57R
WARRENSBURG    CLOUDY    64  55  72 NW9       29.52S
WHITEMAN AFB   PTSUNNY   62  59  89 W8        29.51R
CLINTON        RAIN      64  57  77 W8        29.53R
SEDALIA        CLOUDY    67  57  70 NW14G23   29.52R
WARSAW         NOT AVBL
MARSHALL       CLOUDY    63  57  82 NW13      29.54R
CHILLICOTHE      N/A     54  51  90 N10G17    29.58R
MOBERLY        CLOUDY    55  52  88 NE9       29.53R
KIRKSVILLE     CLOUDY    54  53  97 NE17      29.57R FOG

$$

MOZ041-047>049-056>058-063>065-088>090-097-252100-
...EASTERN AND SOUTHERN MISSOURI...

CITY           SKY/WX    TMP DP  RH WIND       PRES   REMARKS
ST. LOUIS INTL LGT RAIN  64  61  88 NE12      29.49R
SPIRIT OF STL  CLOUDY    66  60  81 CALM      29.48R
COLUMBIA       CLOUDY    69  56  62 W20G26    29.49R
JEFFERSON CITY PTSUNNY   72  54  53 SW23G32   29.48R
MEXICO         LGT RAIN N/A N/A N/A NE9       29.50R
HANNIBAL       DRIZZLE   55  54  94 NE7       29.54S
ROLLA          CLOUDY    70  52  52 W18       29.48R
LEBANON        MOSUNNY   70  50  49 W20G29    29.53R
OSAGE BEACH    CLOUDY    66  52  59 W9G16     29.52R
SPRINGFIELD    PTSUNNY   72  52  49 W25G36    29.54R
BRANSON        MOSUNNY   77  48  36 SW13G24   29.56S
NEVADA         CLOUDY    70  54  56 W20G25    29.55S
JOPLIN         CLOUDY    74  53  48 W20G29    29.56R
WEST PLAINS    MOSUNNY   79  49  34 W17G26    29.52R

$$

IAZ060-094-KSZ022-034>040-054-083-096-NEZ052-066-093-252100-
...KANSAS...SOUTHEAST NEBRASKA AND IOWA...

CITY           SKY/WX    TMP DP  RH WIND       PRES   REMARKS
TOPEKA         CLOUDY    62  55  77 N14       29.60R
MANHATTAN      CLOUDY    60  53  77 N7        29.65R
EMPORIA        MOSUNNY   66  56  70 NW18      29.61R
CHANUTE        CLOUDY    71  53  52 NW21G29   29.58R
WICHITA        MOSUNNY   74  54  49 N14       29.62S
OMAHA          CLOUDY    52  46  80 N12       29.70S
LINCOLN        CLOUDY    51  47  86 NE18      29.70R
FALLS CITY     CLOUDY    52  48  86 N13       29.64R
LAMONI         CLOUDY    48  44  86 NE18      29.64R
DES MOINES     CLOUDY    49  44  83 NE16      29.69R

$$



USA.gov is the U.S. government's official web portal to all federal, state and local government web resources and services.